#timestamp,LO_Frequency,Hit,StdDev 
1668304815.8,286047005.8,Y
1668304835.7,286046999.7,P
1668304855.5,286047002.5,N
1668304875.3,286047001.4,N
1668304895.2,286047004.2,Y
1668304915.0,286047001.6,P
1668304915.9,286047001.6,P
1668304935.7,286046999.9,N
1668304955.6,286047000.6,N
1668304975.4,286046998.5,N
1668304995.3,286047001.0,N
1668305015.1,286047000.3,N
1668305016.0,286047000.3,N
1668305035.8,286046998.7,N
1668305055.7,286046998.7,N
1668305075.5,286046996.9,N
1668305095.3,286046998.9,N
1668305115.2,286046998.4,N
1668305135.0,286046998.3,N
1668305135.9,286046998.3,N
1668305155.8,286047000.9,N
1668305175.6,286047002.8,N
1668305195.4,286047000.9,N
1668305215.3,286046998.4,N
1668305235.1,286047000.7,N
1668305255.8,286046999.9,N
1668305275.7,286047000.7,N
1668305295.9,286046998.4,N
1668305315.7,286047000.4,N
1668305335.5,286046999.0,N
1668305355.4,286046997.0,N
1668305375.2,286046995.8,N
1668305395.1,286046997.8,N
1668305396.0,286046997.8,N
1668305415.8,286046995.7,N
1668305435.8,286046995.3,N
1668305455.6,286046997.7,N
1668305475.4,286046999.2,N
1668305495.3,286046998.3,N
1668305515.1,286047000.1,N
1668305535.9,286047000.0,N
1668305555.7,286047001.1,N
1668305575.5,286047000.6,N
1668305595.4,286047002.3,N
1668305615.2,286047002.4,N
1668305635.0,286047000.5,N
1668305635.9,286047000.5,N
1668305655.8,286046998.1,N
1668305675.6,286046999.4,N
1668305695.5,286046999.1,N
1668305715.3,286046995.6,N
1668305735.1,286046997.9,N
1668305755.9,286046996.6,N
1668305775.7,286046996.5,N
1668305795.5,286046998.7,N
1668305815.4,286046998.8,N
1668305835.2,286046998.1,N
1668305855.0,286046999.4,N
1668305856.0,286046999.4,N
1668305875.8,286046997.0,N
1668305895.6,286046997.1,N
1668305945.5,286046998.0,E
1668305955.4,286046997.3,N
1668305975.3,286047000.6,P
1668305995.1,286047000.2,N
1668306015.8,286047000.4,N
1668306035.7,286047001.0,N
1668306055.5,286047001.0,N
1668306075.4,286047001.0,N
1668306095.2,286047000.2,N
1668306115.0,286047000.0,N
1668306115.9,286047000.0,N
1668306135.8,286047002.8,N
1668306155.6,286047001.0,N
1668306175.5,286046999.5,N
1668306195.3,286046998.7,N
1668306215.1,286046998.5,N
1668306235.9,286046996.7,N
1668306255.7,286046996.6,N
1668306275.5,286046998.2,N
1668306295.4,286046999.0,N
1668306315.2,286046997.0,N
1668306335.1,286046996.7,N
1668306336.0,286046996.7,N
1668306355.8,286046995.3,N
1668306375.6,286046999.1,N
1668306395.5,286047000.6,N
1668306415.3,286047002.8,N
1668306435.1,286047002.5,N
1668306455.9,286047002.1,N
1668306475.7,286046999.9,N
1668306495.6,286047002.8,N
1668306515.4,286047000.4,N
1668306535.2,286047000.8,N
1668306555.1,286047002.1,N
1668306556.0,286047002.1,N
1668306575.8,286047001.8,N
1668306595.6,286047004.0,N
1668306615.5,286047001.7,N
1668306635.3,286047004.4,N
1668306655.2,286047004.0,N
1668306675.9,286047001.7,N
1668306695.7,286047000.7,N
1668306715.6,286046999.7,N
1668306735.4,286047002.4,N
1668306755.3,286046999.7,N
1668306775.1,286047004.3,N
1668306776.0,286047004.3,N
1668306795.8,286047003.6,N
1668306815.7,286047003.9,N
1668306835.5,286047004.3,N
1668306855.4,286047001.4,N
1668306875.2,286047003.6,N
1668306895.0,286047003.4,N
1668306895.9,286047003.4,N
1668306915.8,286047004.1,N
1668306935.6,286047006.0,Y
1668306955.5,286046999.9,P
1668306975.3,286047002.2,N
1668306995.1,286047001.4,N
1668307015.9,286047001.8,N
1668307035.7,286047000.3,N
1668307055.6,286046996.9,Y
1668307075.4,286046997.9,P
1668307095.2,286046997.3,N
1668307115.1,286046997.8,N
1668307116.0,286046997.8,N
1668307135.8,286046998.0,N
1668307155.6,286046995.5,Y
1668307175.5,286046999.6,P
1668307195.3,286047000.2,N
1668307215.2,286046998.2,N
1668307235.9,286046998.1,N
1668307255.7,286046998.7,N
1668307275.6,286046999.3,N
1668307295.4,286047000.7,N
1668307315.3,286047000.0,N
1668307335.1,286046999.4,N
1668307336.0,286046999.4,N
1668307355.8,286046996.9,Y
1668307375.7,286046999.4,P
1668307395.5,286047002.4,P
1668307415.4,286047000.6,N
1668307435.2,286047002.3,N
1668307455.0,286047002.4,N
1668307455.9,286047002.4,N
1668307475.8,286047002.1,N
1668307495.6,286047001.9,N
1668307515.4,286047001.4,N
1668307535.3,286047002.8,N
1668307555.1,286046999.7,N
1668307575.9,286047000.0,N
1668307595.7,286046998.6,N
1668307615.5,286047001.0,N
1668307635.4,286047001.5,N
1668307655.2,286047002.6,N
1668307675.0,286047000.5,N
1668307675.9,286047000.5,N
1668307695.8,286047002.6,N
1668307715.6,286047001.3,N
1668307735.5,286047003.8,Y
1668307755.3,286047001.4,P
1668307775.1,286047001.3,P
1668307795.9,286047004.4,P
1668307815.7,286047002.6,N
1668307835.5,286047002.4,N
1668307855.4,286047000.6,N
1668307875.2,286046996.8,N
1668307895.1,286046998.6,N
1668307896.0,286046998.6,N
1668307915.8,286046998.4,N
1668307935.6,286046998.4,N
1668307955.5,286047001.0,N
1668307975.3,286047002.5,N
1668307995.1,286047001.3,N
1668308015.9,286047002.3,N
1668308035.7,286046999.7,N
1668308055.6,286047000.8,N
1668308075.4,286047000.8,N
1668308095.2,286047000.4,N
1668308115.1,286047002.2,N
1668308116.0,286047002.2,N
1668308135.8,286047001.7,N
1668308155.6,286046999.7,N
1668308175.5,286047002.5,N
1668308195.3,286047002.5,N
1668308215.1,286047001.1,N
1668308235.9,286047000.5,N
1668308255.7,286047001.1,N
1668308275.6,286047000.3,N
1668308295.4,286047000.4,N
1668308315.2,286046998.4,N
1668308335.1,286047000.8,N
1668308336.0,286047000.8,N
1668308355.8,286047000.4,N
1668308375.7,286047000.7,N
1668308395.5,286046998.5,N
